Time,TemperatureF,DewpointF,PressureIn,WindDirection,WindDirectionDegrees,WindSpeedMPH,WindSpeedGustMPH,Humidity,HourlyPrecipIn,Conditions,Clouds,dailyrainin,SoftwareType,DateUTC
2013-04-09 00:00:00,31.5,27.0,30.26,South,188,0.0,0.0,83,0.00,,,-99.99,meteobridge,2013-04-09 07:00:00,
2013-04-09 00:15:00,31.3,27.0,30.27,South,188,0.0,0.0,84,0.00,,,0.00,meteobridge,2013-04-09 07:15:00,
2013-04-09 00:30:00,30.6,26.6,30.27,South,188,0.0,0.0,85,0.00,,,0.00,meteobridge,2013-04-09 07:30:00,
2013-04-09 00:45:00,30.2,26.6,30.27,South,188,0.0,0.0,86,0.00,,,0.00,meteobridge,2013-04-09 07:45:00,
2013-04-09 01:01:00,29.8,26.4,30.27,South,188,0.0,0.0,87,0.00,,,0.00,meteobridge,2013-04-09 08:01:00,
2013-04-09 01:16:00,29.5,26.4,30.27,South,188,0.0,0.0,88,0.00,,,0.00,meteobridge,2013-04-09 08:16:00,
2013-04-09 01:30:00,29.7,26.2,30.28,SSE,150,0.0,0.0,87,0.00,,,0.00,meteobridge,2013-04-09 08:30:00,
2013-04-09 01:46:00,29.5,26.1,30.28,SSE,150,0.0,0.0,87,0.00,,,0.00,meteobridge,2013-04-09 08:46:00,
2013-04-09 02:01:00,28.9,25.9,30.28,SSE,150,0.0,0.0,88,0.00,,,0.00,meteobridge,2013-04-09 09:01:00,
2013-04-09 02:16:00,28.2,25.3,30.27,SSE,150,0.0,0.0,89,0.00,,,0.00,meteobridge,2013-04-09 09:16:00,
2013-04-09 02:31:00,28.0,25.5,30.28,SSE,150,0.0,0.0,90,0.00,,,0.00,meteobridge,2013-04-09 09:31:00,
2013-04-09 02:47:00,27.7,25.3,30.28,SSE,150,0.0,0.0,91,0.00,,,0.00,meteobridge,2013-04-09 09:47:00,
2013-04-09 03:02:00,27.7,25.7,30.29,SSE,150,0.0,0.0,92,0.00,,,0.00,meteobridge,2013-04-09 10:02:00,
2013-04-09 03:17:00,28.4,26.1,30.29,SSE,149,0.0,0.0,91,0.00,,,0.00,meteobridge,2013-04-09 10:17:00,
2013-04-09 03:32:00,29.1,26.8,30.29,SSE,150,0.0,0.0,91,0.00,,,0.00,meteobridge,2013-04-09 10:32:00,
2013-04-09 03:47:00,29.1,26.2,30.29,SSE,149,0.0,0.0,89,0.00,,,0.00,meteobridge,2013-04-09 10:47:00,
2013-04-09 04:02:00,28.9,26.1,30.30,SSE,149,0.0,0.0,89,0.00,,,0.00,meteobridge,2013-04-09 11:02:00,
2013-04-09 04:17:00,28.9,26.1,30.30,SSE,148,0.0,0.0,89,0.00,,,0.00,meteobridge,2013-04-09 11:17:00,
2013-04-09 04:33:00,29.5,27.0,30.31,SSE,149,0.0,0.0,90,0.00,,,0.00,meteobridge,2013-04-09 11:33:00,
2013-04-09 04:48:00,29.7,27.1,30.31,SSE,149,0.0,0.0,90,0.00,,,0.00,meteobridge,2013-04-09 11:48:00,
2013-04-09 05:03:00,30.4,27.5,30.31,SSE,149,0.0,0.0,89,0.00,,,0.00,meteobridge,2013-04-09 12:03:00,
2013-04-09 05:18:00,30.7,27.9,30.31,SSE,149,0.0,0.0,89,0.00,,,0.00,meteobridge,2013-04-09 12:18:00,
2013-04-09 05:33:00,30.7,27.9,30.32,SSE,149,0.0,0.0,89,0.00,,,0.00,meteobridge,2013-04-09 12:33:00,
2013-04-09 05:48:00,30.4,27.5,30.32,SSE,149,0.0,0.0,89,0.00,,,0.00,meteobridge,2013-04-09 12:48:00,
2013-04-09 06:03:00,29.7,27.1,30.33,SSE,148,0.0,0.0,90,0.00,,,0.00,meteobridge,2013-04-09 13:03:00,
2013-04-09 06:18:00,29.1,26.8,30.34,SSE,149,0.0,0.0,91,0.00,,,0.00,meteobridge,2013-04-09 13:18:00,
2013-04-09 06:48:00,28.8,27.0,30.35,SSE,149,0.0,0.0,93,0.00,,,0.00,meteobridge,2013-04-09 13:48:00,
2013-04-09 07:03:00,29.3,27.3,30.36,SSE,149,0.0,0.0,92,0.00,,,0.00,meteobridge,2013-04-09 14:03:00,
2013-04-09 07:19:00,30.4,28.0,30.36,SSE,149,0.0,0.0,91,0.00,,,0.00,meteobridge,2013-04-09 14:19:00,
2013-04-09 07:34:00,32.5,29.1,30.37,NE,44,0.0,0.0,87,0.00,,,0.00,meteobridge,2013-04-09 14:34:00,
2013-04-09 07:49:00,33.3,28.9,30.37,NE,50,2.0,2.9,84,0.00,,,0.00,meteobridge,2013-04-09 14:49:00,
2013-04-09 08:04:00,34.2,29.3,30.37,NE,56,0.0,0.0,82,0.00,,,0.00,meteobridge,2013-04-09 15:04:00,
2013-04-09 08:19:00,36.1,30.6,30.37,SSE,160,0.0,0.0,80,0.00,,,0.00,meteobridge,2013-04-09 15:19:00,
2013-04-09 08:34:00,38.3,30.4,30.37,South,169,0.0,0.9,73,0.00,,,0.00,meteobridge,2013-04-09 15:34:00,
2013-04-09 08:49:00,37.9,30.0,30.37,NNE,33,0.0,2.9,73,0.00,,,0.00,meteobridge,2013-04-09 15:49:00,
2013-04-09 09:04:00,38.3,30.7,30.36,NE,43,0.9,2.0,74,0.00,,,0.00,meteobridge,2013-04-09 16:04:00,
2013-04-09 09:20:00,39.6,30.6,30.36,WNW,285,0.0,0.0,70,0.00,,,0.00,meteobridge,2013-04-09 16:20:00,
2013-04-09 09:35:00,39.7,31.1,30.36,ENE,58,0.0,0.9,71,0.00,,,0.00,meteobridge,2013-04-09 16:35:00,
2013-04-09 09:50:00,41.0,32.0,30.36,NNE,30,0.9,0.9,70,0.00,,,0.00,meteobridge,2013-04-09 16:50:00,
2013-04-09 10:05:00,41.4,31.3,30.36,ESE,122,2.0,2.0,67,0.00,,,0.00,meteobridge,2013-04-09 17:05:00,
2013-04-09 10:20:00,42.4,31.5,30.36,ENE,67,0.0,0.9,65,0.00,,,0.00,meteobridge,2013-04-09 17:20:00,
2013-04-09 10:35:00,43.5,30.6,30.36,East,92,2.0,4.0,60,0.00,,,0.00,meteobridge,2013-04-09 17:35:00,
2013-04-09 10:50:00,44.4,29.3,30.35,SSE,154,0.9,2.0,55,0.00,,,0.00,meteobridge,2013-04-09 17:50:00,
2013-04-09 11:05:00,46.0,30.7,30.36,SE,139,0.0,0.9,55,0.00,,,0.00,meteobridge,2013-04-09 18:05:00,
2013-04-09 11:20:00,47.7,30.0,30.36,NNW,347,0.0,2.0,50,0.00,,,0.00,meteobridge,2013-04-09 18:20:00,
2013-04-09 11:35:00,48.7,29.8,30.35,North,351,0.0,2.0,48,0.00,,,0.00,meteobridge,2013-04-09 18:35:00,
2013-04-09 11:50:00,49.5,31.1,30.35,NE,38,2.0,2.0,49,0.00,,,0.00,meteobridge,2013-04-09 18:50:00,
2013-04-09 12:05:00,49.6,29.1,30.35,North,6,0.0,4.0,45,0.00,,,0.00,meteobridge,2013-04-09 19:05:00,
2013-04-09 12:20:00,50.7,29.7,30.35,North,359,0.0,2.0,44,0.00,,,0.00,meteobridge,2013-04-09 19:20:00,
2013-04-09 12:35:00,51.1,28.8,30.34,NE,35,2.9,4.9,42,0.00,,,0.00,meteobridge,2013-04-09 19:35:00,
2013-04-09 12:50:00,51.3,28.9,30.34,ENE,65,0.9,0.9,42,0.00,,,0.00,meteobridge,2013-04-09 19:50:00,
2013-04-09 13:05:00,52.0,29.7,30.33,WNW,288,0.9,2.0,42,0.00,,,0.00,meteobridge,2013-04-09 20:05:00,
2013-04-09 13:21:00,51.4,29.1,30.33,West,265,0.9,2.9,42,0.00,,,0.00,meteobridge,2013-04-09 20:21:00,
2013-04-09 13:36:00,52.5,30.0,30.33,WNW,298,0.9,2.0,42,0.00,,,0.00,meteobridge,2013-04-09 20:36:00,
2013-04-09 13:51:00,51.6,28.8,30.32,NW,314,0.0,0.0,41,0.00,,,0.00,meteobridge,2013-04-09 20:51:00,
2013-04-09 14:21:00,53.2,29.5,30.31,NW,307,0.9,2.9,40,0.00,,,0.00,meteobridge,2013-04-09 21:21:00,
2013-04-09 14:36:00,53.4,30.9,30.31,SE,138,0.0,0.9,42,0.00,,,0.00,meteobridge,2013-04-09 21:36:00,
2013-04-09 14:51:00,52.5,28.9,30.31,NNE,30,0.0,2.9,40,0.00,,,0.00,meteobridge,2013-04-09 21:51:00,
2013-04-09 15:06:00,53.4,29.7,30.30,WNW,302,0.9,2.0,40,0.00,,,0.00,meteobridge,2013-04-09 22:06:00,
2013-04-09 15:21:00,53.1,29.3,30.30,NW,314,0.9,2.9,40,0.00,,,0.00,meteobridge,2013-04-09 22:21:00,
2013-04-09 15:37:00,53.8,29.5,30.29,ESE,113,0.9,2.0,39,0.00,,,0.00,meteobridge,2013-04-09 22:37:00,
2013-04-09 15:52:00,53.8,30.6,30.29,ESE,108,0.0,0.9,41,0.00,,,0.00,meteobridge,2013-04-09 22:52:00,
2013-04-09 16:07:00,53.6,29.3,30.29,NNE,27,0.0,2.0,39,0.00,,,0.00,meteobridge,2013-04-09 23:07:00,
2013-04-09 16:22:00,53.2,30.7,30.28,SE,142,0.0,0.9,42,0.00,,,0.00,meteobridge,2013-04-09 23:22:00,
2013-04-09 16:37:00,53.4,30.4,30.28,West,274,0.0,2.0,41,0.00,,,0.00,meteobridge,2013-04-09 23:37:00,
2013-04-09 16:52:00,54.3,29.8,30.28,NE,39,0.0,2.0,39,0.00,,,0.00,meteobridge,2013-04-09 23:52:00,
2013-04-09 17:07:00,55.0,29.8,30.28,WNW,288,0.9,0.9,38,0.00,,,0.00,meteobridge,2013-04-10 00:07:00,
2013-04-09 17:22:00,54.1,30.4,30.27,SE,129,2.0,2.0,40,0.00,,,0.00,meteobridge,2013-04-10 00:22:00,
2013-04-09 17:38:00,53.2,30.7,30.27,WNW,285,0.0,0.9,42,0.00,,,0.00,meteobridge,2013-04-10 00:38:00,
2013-04-09 17:53:00,52.5,31.3,30.27,SSE,162,0.0,0.0,44,0.00,,,0.00,meteobridge,2013-04-10 00:53:00,
2013-04-09 18:08:00,51.6,31.5,30.27,SSE,162,0.0,0.0,46,0.00,,,0.00,meteobridge,2013-04-10 01:08:00,
2013-04-09 18:23:00,51.3,32.2,30.26,SE,144,0.0,0.0,48,0.00,,,0.00,meteobridge,2013-04-10 01:23:00,
2013-04-09 18:38:00,51.1,32.0,30.25,SE,144,0.0,0.0,48,0.00,,,0.00,meteobridge,2013-04-10 01:38:00,
2013-04-09 18:53:00,50.5,33.1,30.25,SE,144,0.0,0.0,51,0.00,,,0.00,meteobridge,2013-04-10 01:53:00,
2013-04-09 19:08:00,49.6,33.6,30.25,SE,144,0.0,0.0,54,0.00,,,0.00,meteobridge,2013-04-10 02:08:00,
2013-04-09 19:24:00,48.7,35.4,30.25,SE,144,0.0,0.0,60,0.00,,,0.00,meteobridge,2013-04-10 02:24:00,
2013-04-09 19:39:00,48.2,35.8,30.25,SE,144,0.0,0.0,62,0.00,,,0.00,meteobridge,2013-04-10 02:39:00,
2013-04-09 19:54:00,47.7,36.5,30.25,SE,144,0.0,0.0,65,0.00,,,0.00,meteobridge,2013-04-10 02:54:00,
2013-04-09 20:09:00,46.8,36.0,30.24,SE,144,0.0,0.0,66,0.00,,,0.00,meteobridge,2013-04-10 03:09:00,
2013-04-09 20:25:00,45.3,35.8,30.24,SE,144,0.0,0.0,69,0.00,,,0.00,meteobridge,2013-04-10 03:25:00,
2013-04-09 20:40:00,44.6,35.8,30.24,SE,144,0.0,0.0,71,0.00,,,0.00,meteobridge,2013-04-10 03:40:00,
2013-04-09 20:55:00,44.1,35.6,30.25,SE,144,0.0,0.0,72,0.00,,,0.00,meteobridge,2013-04-10 03:55:00,
2013-04-09 21:10:00,44.6,35.4,30.24,SE,146,0.0,0.0,70,0.00,,,0.00,meteobridge,2013-04-10 04:10:00,
2013-04-09 21:25:00,44.2,35.1,30.25,SE,146,0.0,0.0,70,0.00,,,0.00,meteobridge,2013-04-10 04:25:00,
2013-04-09 21:41:00,44.8,35.2,30.25,SE,146,0.0,0.0,69,0.00,,,0.00,meteobridge,2013-04-10 04:41:00,
2013-04-09 21:56:00,45.1,34.9,30.24,SE,146,0.0,0.0,67,0.00,,,0.00,meteobridge,2013-04-10 04:56:00,
2013-04-09 22:11:00,45.5,35.2,30.23,South,175,0.0,0.0,67,0.00,,,0.00,meteobridge,2013-04-10 05:11:00,
2013-04-09 22:26:00,45.5,35.2,30.24,South,175,0.0,0.0,67,0.00,,,0.00,meteobridge,2013-04-10 05:26:00,
2013-04-09 22:41:00,45.9,34.7,30.24,SSE,155,0.0,0.0,65,0.00,,,0.00,meteobridge,2013-04-10 05:41:00,
2013-04-09 22:56:00,46.2,34.7,30.23,SE,143,0.9,0.9,64,0.00,,,0.00,meteobridge,2013-04-10 05:56:00,
2013-04-09 23:11:00,46.6,35.1,30.23,SSE,149,0.0,0.0,64,0.00,,,0.00,meteobridge,2013-04-10 06:11:00,
2013-04-09 23:26:00,46.9,34.5,30.23,SE,137,0.0,0.0,62,0.00,,,0.00,meteobridge,2013-04-10 06:26:00,
2013-04-09 23:41:00,46.9,34.5,30.22,SE,135,0.0,0.9,62,0.00,,,0.00,meteobridge,2013-04-10 06:41:00,
2013-04-09 23:56:00,46.8,34.5,30.22,SE,143,0.0,0.0,62,0.00,,,0.00,meteobridge,2013-04-10 06:56:00,